TimeCDT,TemperatureF,Dew PointF,Humidity,Sea Level PressureIn,VisibilityMPH,Wind Direction,Wind SpeedMPH,Gust SpeedMPH,PrecipitationIn,Events,Conditions,WindDirDegrees,DateUTC
12:14 AM,36.3,32.2,85,30.15,10.0,NNE,8.1,-,N/A,,Overcast,20,2013-05-04 05:14:00
12:34 AM,36.5,32.4,85,30.15,10.0,North,8.1,-,N/A,,Overcast,10,2013-05-04 05:34:00
12:54 AM,36.3,32.4,86,30.14,10.0,North,8.1,-,N/A,,Overcast,10,2013-05-04 05:54:00
1:14 AM,36.1,32.5,87,30.13,10.0,North,9.2,-,N/A,,Light Drizzle,10,2013-05-04 06:14:00
1:34 AM,36.1,32.9,88,30.13,10.0,North,10.4,-,N/A,,Overcast,10,2013-05-04 06:34:00
1:54 AM,36.1,32.9,88,30.12,10.0,North,9.2,-,N/A,,Overcast,10,2013-05-04 06:54:00
2:14 AM,36.1,33.1,89,30.12,10.0,NNE,9.2,-,N/A,,Overcast,20,2013-05-04 07:14:00
2:34 AM,36.1,33.3,89,30.12,7.0,NNE,9.2,-,N/A,,Overcast,20,2013-05-04 07:34:00
2:54 AM,36.1,33.3,89,30.12,10.0,NNE,10.4,-,N/A,,Overcast,20,2013-05-04 07:54:00
3:14 AM,36.1,33.3,89,30.13,10.0,NNE,11.5,-,N/A,,Overcast,30,2013-05-04 08:14:00
3:34 AM,36.1,33.3,89,30.11,10.0,North,11.5,-,N/A,,Overcast,10,2013-05-04 08:34:00
3:54 AM,36.1,33.8,91,30.12,2.5,North,8.1,-,0.02,Rain,Light Rain,360,2013-05-04 08:54:00
4:14 AM,35.8,34.3,94,30.12,5.0,NNE,8.1,-,0.01,Rain,Rain,20,2013-05-04 09:14:00
4:34 AM,35.8,34.7,96,30.12,5.0,North,8.1,-,0.02,Rain,Light Rain,10,2013-05-04 09:34:00
4:54 AM,35.8,34.7,96,30.11,10.0,North,9.2,-,0.02,,Light Drizzle,10,2013-05-04 09:54:00
5:14 AM,35.8,34.7,96,30.11,7.0,NNE,8.1,-,0.01,Rain,Rain,20,2013-05-04 10:14:00
5:34 AM,36.0,34.7,95,30.11,10.0,North,6.9,-,0.01,,Overcast,10,2013-05-04 10:34:00
5:54 AM,36.1,35.1,96,30.12,10.0,North,8.1,-,0.01,,Overcast,10,2013-05-04 10:54:00
6:14 AM,36.1,35.1,96,30.12,5.0,North,9.2,-,0.01,Rain,Light Rain,10,2013-05-04 11:14:00
6:34 AM,36.3,35.1,95,30.11,7.0,North,6.9,-,0.02,Rain,Light Rain,10,2013-05-04 11:34:00
6:54 AM,36.1,35.1,96,30.12,5.0,NNE,9.2,-,0.03,Rain,Light Rain,20,2013-05-04 11:54:00
7:14 AM,36.1,35.1,96,30.12,10.0,North,8.1,-,0.01,Rain,Light Rain,10,2013-05-04 12:14:00
7:34 AM,36.5,35.2,95,30.13,10.0,North,6.9,-,0.01,Rain,Light Rain,10,2013-05-04 12:34:00
7:54 AM,36.7,35.6,96,30.13,10.0,NNE,6.9,-,0.01,,Light Drizzle,20,2013-05-04 12:54:00
8:14 AM,36.5,35.6,97,30.12,10.0,North,6.9,-,N/A,,Overcast,10,2013-05-04 13:14:00
8:34 AM,37.4,36.0,95,30.12,10.0,North,8.1,-,N/A,,Overcast,10,2013-05-04 13:34:00
8:54 AM,37.4,36.3,96,30.13,10.0,NNE,6.9,-,N/A,,Overcast,30,2013-05-04 13:54:00
9:14 AM,37.8,36.5,95,30.13,10.0,North,6.9,-,N/A,,Overcast,10,2013-05-04 14:14:00
9:34 AM,38.3,37.0,95,30.13,10.0,North,8.1,-,N/A,,Overcast,10,2013-05-04 14:34:00
9:54 AM,39.2,37.9,95,30.13,10.0,NNE,6.9,-,N/A,,Overcast,30,2013-05-04 14:54:00
10:14 AM,39.7,38.1,94,30.14,10.0,NNE,6.9,-,N/A,,Overcast,30,2013-05-04 15:14:00
10:34 AM,41.0,38.3,90,30.13,10.0,NNE,10.4,-,N/A,,Overcast,30,2013-05-04 15:34:00
10:54 AM,42.1,38.1,86,30.12,10.0,NNE,9.2,-,N/A,,Overcast,20,2013-05-04 15:54:00
11:14 AM,42.3,37.9,85,30.13,10.0,NNE,8.1,-,N/A,,Overcast,20,2013-05-04 16:14:00
11:34 AM,43.5,38.5,82,30.13,10.0,North,5.8,-,N/A,,Overcast,10,2013-05-04 16:34:00
11:54 AM,43.7,38.5,82,30.13,10.0,North,6.9,-,N/A,,Overcast,10,2013-05-04 16:54:00
12:14 PM,44.8,38.8,80,30.14,10.0,NNE,4.6,-,N/A,,Overcast,30,2013-05-04 17:14:00
12:39 PM,45.5,39.0,78,30.14,10.0,NNE,6.9,-,N/A,,Overcast,30,2013-05-04 17:39:00
12:54 PM,46.4,39.4,77,30.14,10.0,NNE,6.9,-,N/A,,Overcast,30,2013-05-04 17:54:00
1:14 PM,46.6,39.4,76,30.13,10.0,North,9.2,-,N/A,,Overcast,360,2013-05-04 18:14:00
1:34 PM,47.3,39.7,75,30.13,10.0,North,5.8,-,N/A,,Overcast,10,2013-05-04 18:34:00
1:54 PM,48.2,40.5,75,30.14,10.0,North,5.8,-,N/A,,Overcast,350,2013-05-04 18:54:00
2:14 PM,48.7,40.5,73,30.14,10.0,North,5.8,-,N/A,,Overcast,350,2013-05-04 19:14:00
2:34 PM,49.5,40.8,72,30.13,10.0,North,5.8,-,N/A,,Overcast,350,2013-05-04 19:34:00
2:54 PM,50.4,41.0,70,30.13,10.0,North,6.9,-,N/A,,Overcast,360,2013-05-04 19:54:00
3:14 PM,51.8,41.7,68,30.13,10.0,North,6.9,-,N/A,,Overcast,360,2013-05-04 20:14:00
3:34 PM,51.6,41.4,68,30.13,10.0,North,10.4,-,N/A,,Overcast,360,2013-05-04 20:34:00
3:54 PM,51.8,41.4,68,30.12,10.0,North,10.4,-,N/A,,Scattered Clouds,360,2013-05-04 20:54:00
4:14 PM,51.8,41.0,67,30.12,10.0,North,10.4,-,N/A,,Scattered Clouds,360,2013-05-04 21:14:00
4:34 PM,52.9,41.5,65,30.12,10.0,North,9.2,-,N/A,,Scattered Clouds,360,2013-05-04 21:34:00
4:54 PM,53.8,42.3,65,30.11,10.0,North,11.5,-,N/A,,Clear,360,2013-05-04 21:54:00
5:14 PM,53.8,41.9,64,30.12,10.0,North,8.1,-,N/A,,Clear,350,2013-05-04 22:14:00
5:34 PM,54.0,41.9,64,30.12,10.0,North,11.5,-,N/A,,Clear,360,2013-05-04 22:34:00
5:54 PM,53.8,42.3,65,30.12,10.0,North,9.2,-,N/A,,Clear,10,2013-05-04 22:54:00
6:14 PM,53.1,41.9,66,30.12,10.0,North,11.5,-,N/A,,Clear,360,2013-05-04 23:14:00
6:34 PM,52.7,42.1,67,30.12,10.0,North,10.4,-,N/A,,Clear,360,2013-05-04 23:34:00
6:54 PM,52.0,42.3,69,30.13,10.0,NNE,8.1,-,N/A,,Clear,20,2013-05-04 23:54:00
7:14 PM,51.3,42.4,72,30.13,10.0,North,9.2,-,N/A,,Clear,10,2013-05-05 00:14:00
7:34 PM,50.4,41.5,72,30.14,10.0,North,10.4,-,N/A,,Clear,360,2013-05-05 00:34:00
7:54 PM,50.0,41.9,74,30.14,10.0,NNE,10.4,-,N/A,,Clear,20,2013-05-05 00:54:00
8:14 PM,49.1,41.5,75,30.14,10.0,North,12.7,16.1,N/A,,Clear,360,2013-05-05 01:14:00
8:34 PM,48.2,41.0,76,30.15,10.0,North,9.2,-,N/A,,Scattered Clouds,360,2013-05-05 01:34:00
8:54 PM,47.7,40.8,77,30.16,10.0,North,9.2,-,N/A,,Mostly Cloudy,360,2013-05-05 01:54:00
9:14 PM,47.5,40.5,77,30.16,10.0,NNE,8.1,-,N/A,,Overcast,20,2013-05-05 02:14:00
9:34 PM,46.8,40.1,78,30.16,10.0,North,9.2,-,N/A,,Mostly Cloudy,10,2013-05-05 02:34:00
9:54 PM,46.4,39.4,77,30.16,10.0,NNE,10.4,-,N/A,,Scattered Clouds,20,2013-05-05 02:54:00
10:14 PM,45.9,39.4,78,30.16,10.0,North,11.5,-,N/A,,Scattered Clouds,10,2013-05-05 03:14:00
10:34 PM,45.1,39.2,80,30.17,10.0,North,6.9,-,N/A,,Mostly Cloudy,10,2013-05-05 03:34:00
10:54 PM,44.6,38.8,80,30.16,10.0,North,5.8,-,N/A,,Overcast,360,2013-05-05 03:54:00
11:14 PM,44.1,38.5,81,30.17,10.0,North,8.1,-,N/A,,Overcast,10,2013-05-05 04:14:00
11:34 PM,43.9,38.3,81,30.17,10.0,North,6.9,-,N/A,,Overcast,360,2013-05-05 04:34:00
11:54 PM,43.7,38.1,81,30.17,10.0,North,5.8,-,N/A,,Overcast,10,2013-05-05 04:54:00